GEFSMA_500_meanwind_066.txt.gz
Wind_Speed
33 34 35 35 36 36 37 37 37 37 38 38 39 39 40 40 41 41 42 42 43 43 44 45 45 46 47 47 47 47 48 48 48 48 48 49 49 50 51 51 52 52 52
37 38 39 39 40 41 41 41 42 42 43 43 44 44 44 45 45 45 46 46 46 47 48 49 49 50 50 50 50 50 51 51 51 51 50 50 51 52 53 53 54 54 55
39 40 41 43 44 45 46 46 46 47 47 48 48 49 49 49 49 49 50 50 50 51 52 52 53 53 53 53 53 53 53 53 53 53 52 52 52 52 53 54 55 56 56
41 42 43 44 47 48 49 49 50 51 51 52 53 54 54 53 53 53 53 53 54 55 55 56 56 56 57 57 57 56 56 55 55 54 54 53 52 52 52 53 55 56 57
42 43 44 46 48 49 50 51 52 54 54 55 56 57 57 57 57 57 56 57 58 58 59 59 59 59 59 60 60 59 59 58 57 56 54 53 52 52 52 52 54 55 56
43 44 45 46 48 50 51 52 53 55 56 57 58 59 59 60 60 60 59 60 61 61 62 62 62 62 62 62 62 62 62 61 59 58 56 55 53 53 52 52 53 54 55
44 45 45 47 48 50 51 53 54 56 56 58 60 60 61 62 62 62 62 63 63 64 64 64 64 65 65 65 65 65 64 63 61 59 58 56 55 54 53 52 52 53 54
43 44 46 47 49 50 52 53 55 57 57 59 61 62 62 62 62 63 64 65 65 66 66 66 67 67 67 67 67 66 66 65 63 61 60 58 56 55 54 54 53 53 54
43 44 46 48 49 51 52 54 56 58 59 61 62 64 64 63 63 64 65 66 66 67 68 68 69 69 70 70 69 68 68 67 65 64 62 60 58 57 56 56 55 55 55
41 43 45 47 49 51 53 55 57 59 61 62 64 66 67 67 67 65 64 65 67 68 69 70 71 72 72 72 71 71 70 69 67 66 65 62 60 59 58 58 57 57 57
42 44 46 47 49 51 52 55 57 59 61 63 65 67 68 70 71 71 68 67 68 69 70 71 72 73 74 74 73 73 72 71 70 68 67 65 63 61 60 60 59 59 59
44 46 48 50 52 54 55 57 59 61 63 65 67 69 70 71 72 74 73 71 71 71 72 73 73 74 75 75 74 74 73 73 72 70 68 67 65 64 63 62 62 61 61
48 50 52 54 56 58 60 62 64 65 67 68 70 71 73 73 75 76 77 75 75 73 74 74 74 75 75 76 75 75 75 74 73 71 70 69 68 66 65 65 64 64 63
52 55 57 59 62 64 66 67 69 70 71 73 74 75 76 76 77 78 79 80 79 77 75 74 75 76 76 76 76 76 76 75 74 73 72 71 70 69 68 67 66 65 64
58 60 63 65 67 69 71 73 74 75 76 77 78 79 79 80 81 81 82 82 83 81 77 75 76 76 77 78 78 78 76 76 75 75 74 72 71 71 70 69 67 66 66
65 67 69 71 73 75 77 78 79 80 80 81 82 82 83 83 84 84 84 84 85 84 81 76 77 78 79 78 78 78 76 76 75 74 74 73 72 71 70 69 68 68 67
71 73 75 77 79 80 82 83 84 84 85 85 86 86 86 86 87 86 86 86 85 85 83 78 78 78 79 77 76 76 75 74 73 73 73 72 71 71 70 70 70 70 69
76 79 81 82 84 85 86 87 88 88 88 88 87 88 87 87 87 86 85 84 83 83 82 78 76 76 77 76 75 74 73 73 72 71 70 70 70 70 70 70 69 69 69
81 83 85 87 88 90 90 91 91 91 90 88 87 86 84 84 82 81 81 80 79 78 78 75 72 72 72 72 72 71 71 70 69 68 68 68 69 69 68 68 67 67 68
85 87 89 91 92 92 92 91 91 89 87 85 83 81 79 78 76 76 75 74 73 72 71 70 68 68 68 68 68 67 67 67 66 66 66 66 66 66 65 66 66 67 67
89 91 92 93 92 91 90 88 86 83 80 77 75 73 71 71 70 69 68 67 67 66 65 64 62 62 62 63 63 64 65 65 64 64 63 63 64 64 65 66 66 66 67
92 92 92 91 89 86 83 80 77 74 71 68 65 64 63 62 62 62 61 61 60 59 58 58 57 57 57 58 59 60 61 62 62 62 63 63 64 64 64 65 65 66 66
92 91 88 85 81 76 73 70 67 65 62 60 58 57 57 56 56 55 55 54 54 53 53 53 52 51 52 54 56 56 57 58 58 60 61 61 62 62 62 62 63 64 65
89 86 81 77 72 67 65 62 60 58 56 54 53 52 51 49 49 49 49 48 48 48 48 48 48 47 48 50 52 53 55 55 56 57 58 58 58 59 60 61 62 63 63
83 78 73 68 64 60 58 57 55 52 50 48 47 47 46 44 44 44 43 43 43 43 44 45 45 45 45 47 48 50 51 52 52 53 54 54 55 58 59 59 60 61 62
75 70 65 62 59 56 54 53 51 49 47 45 43 43 42 41 41 40 40 39 39 40 41 42 43 44 44 44 46 47 48 50 50 51 52 53 54 56 56 56 57 59 60

GEFSMA_500_meanwind_072.txt.gz
Wind_Speed
33 34 34 35 36 37 38 38 39 39 40 40 41 41 42 42 42 42 42 42 43 43 43 43 44 44 45 45 45 45 45 45 45 45 45 45 45 45 45 45 46 47 47
34 35 35 36 37 38 39 40 41 42 43 44 45 46 46 47 47 47 47 47 47 47 48 48 49 49 49 49 49 49 49 49 49 48 48 47 47 47 47 47 47 47 48
34 35 36 37 38 39 40 41 42 43 44 45 47 48 49 50 50 51 51 51 51 52 52 52 53 53 54 54 53 53 53 53 52 52 51 50 49 49 49 48 49 48 49
34 35 36 37 38 39 40 41 42 44 45 46 47 49 50 51 52 53 54 54 54 55 56 56 57 57 57 57 57 57 57 56 56 55 54 53 52 52 51 50 50 50 50
33 34 35 36 37 38 39 41 42 43 44 46 47 48 50 51 52 53 54 55 55 56 57 58 59 60 60 60 60 60 60 60 59 58 57 56 55 54 53 52 51 51 50
34 34 35 36 37 38 39 41 42 43 44 46 48 49 50 51 52 53 54 56 56 57 58 59 60 61 62 62 62 63 63 63 62 61 60 59 58 56 55 54 53 52 52
35 35 36 37 38 38 40 41 42 43 44 46 48 49 49 51 52 53 56 57 58 60 61 61 62 63 64 65 65 65 65 65 65 64 63 62 61 59 58 57 56 55 54
34 34 35 36 37 38 39 41 42 44 45 48 50 52 52 53 54 55 57 59 60 62 63 64 65 66 66 67 67 67 67 67 67 67 66 65 63 62 61 59 58 57 57
33 34 35 36 37 39 41 43 46 48 50 52 54 56 58 58 58 57 58 60 62 64 66 67 68 69 70 70 70 70 70 70 70 69 69 68 66 65 64 62 61 60 59
33 34 36 38 40 42 45 47 49 52 54 55 58 60 63 65 66 65 64 65 66 67 69 70 72 73 73 73 73 73 73 73 73 72 72 71 70 69 67 66 65 63 62
36 38 40 42 44 46 49 52 54 57 59 61 63 65 67 70 72 74 73 73 73 73 73 74 75 76 77 77 77 77 77 77 77 76 75 74 73 72 71 69 68 67 66
40 42 44 47 49 52 54 57 59 62 65 67 69 71 74 75 77 79 81 81 81 80 81 80 80 80 80 81 81 81 81 81 80 80 79 78 76 75 74 73 72 70 69
45 47 50 52 55 58 60 63 65 68 70 73 75 77 79 81 82 84 86 87 87 86 87 87 86 85 85 85 85 85 85 85 84 83 82 81 80 78 77 76 75 73 72
50 52 55 58 60 63 66 68 71 73 76 78 80 82 84 85 87 89 90 92 93 92 91 91 91 91 90 89 89 89 89 88 87 86 85 84 83 81 80 79 77 76 74
54 57 60 62 65 68 71 74 76 78 80 82 84 86 88 89 91 92 94 95 96 97 95 92 93 94 94 93 91 91 91 91 90 89 87 85 84 83 82 80 79 78 77
59 62 65 67 70 73 76 78 80 82 84 86 88 89 91 92 93 94 95 95 95 96 96 90 90 91 92 92 90 89 89 89 89 88 87 86 85 84 83 82 81 80 79
64 67 69 72 75 78 80 82 84 86 88 89 91 92 93 93 93 93 92 90 89 88 88 82 80 82 84 84 84 84 83 83 83 83 83 83 83 83 82 82 81 80 80
69 72 74 77 80 82 84 86 88 89 91 92 92 93 92 91 89 86 84 82 80 79 78 75 70 72 73 74 74 75 75 75 76 76 76 77 78 79 79 79 79 79 79
73 76 79 81 83 85 87 89 91 91 92 93 92 91 87 84 80 77 75 73 71 69 69 67 62 62 63 64 65 65 66 67 68 69 69 70 71 73 74 75 76 76 76
77 80 82 84 86 88 90 91 92 93 92 90 87 83 78 74 70 68 66 64 63 63 62 60 57 56 56 57 58 58 59 60 61 62 63 64 64 65 67 69 70 71 72
80 83 85 87 89 90 91 92 92 90 87 82 76 71 67 64 62 61 59 58 58 57 56 55 53 52 51 51 52 53 54 55 55 56 57 58 59 60 61 62 63 65 66
83 85 87 89 91 91 91 90 88 84 78 72 66 62 59 57 56 55 54 54 53 53 52 51 49 48 46 46 47 48 48 50 50 50 51 52 53 54 56 57 59 61 62
85 87 89 90 90 89 88 85 79 74 68 63 59 56 54 53 52 51 50 50 49 49 48 48 46 44 43 42 43 43 44 45 45 46 46 46 47 48 50 52 54 56 57
87 89 90 90 88 85 82 76 70 65 60 56 54 52 50 49 48 48 47 46 45 45 45 45 44 42 41 40 40 40 40 41 41 41 42 42 43 44 46 48 49 51 53
88 89 89 87 84 79 73 67 63 58 54 51 50 49 48 46 46 46 45 44 42 41 42 42 42 41 40 39 38 38 38 38 38 38 39 40 41 42 43 44 46 49 51
88 88 86 83 78 71 65 61 58 54 51 49 47 46 45 44 43 43 43 42 41 40 40 40 39 39 38 37 37 37 37 37 37 37 37 39 40 42 42 43 44 46 48

GEFSMA_500_meanwind_078.txt.gz
Wind_Speed
28 29 29 30 31 32 33 34 35 36 37 38 38 39 40 41 41 42 42 43 44 45 45 46 46 47 48 48 48 48 48 48 48 49 48 48 48 48 48 48 47 47 47
28 29 30 30 31 32 33 34 35 36 37 38 39 41 42 42 43 44 45 45 46 48 49 49 50 51 52 52 52 53 53 53 53 53 53 52 52 51 51 51 51 50 50
29 29 30 31 32 32 33 34 35 36 37 38 40 41 42 43 43 44 45 46 47 48 49 50 51 52 53 54 55 55 56 56 56 56 56 55 55 55 55 54 54 54 53
30 31 31 32 33 33 34 35 36 37 37 38 39 40 41 42 42 43 44 46 47 47 48 50 51 52 53 54 55 56 57 57 57 58 58 58 58 58 58 57 57 56 56
33 33 34 34 35 35 35 36 37 37 38 39 39 40 41 42 42 43 44 45 46 47 48 49 51 52 54 55 56 57 58 59 59 60 60 61 61 61 61 60 60 59 59
34 34 34 34 35 35 35 36 37 38 38 39 40 40 41 42 42 43 44 45 46 48 50 51 52 54 55 57 59 60 61 61 62 62 63 63 63 63 63 63 63 62 62
33 33 33 34 34 35 36 36 37 37 38 39 40 40 40 42 43 45 46 47 49 50 52 54 55 56 58 59 61 62 64 65 65 66 66 66 66 66 66 66 66 65 65
32 32 32 33 33 34 35 36 37 37 39 41 43 44 43 43 46 48 49 51 52 54 55 57 60 61 63 64 65 66 68 69 70 71 71 71 71 70 70 70 69 69 68
31 31 32 33 34 35 36 38 39 40 42 44 47 49 50 50 51 51 54 56 58 59 60 62 64 65 67 68 69 71 72 74 75 76 76 76 76 75 75 74 73 73 72
32 33 34 35 36 37 39 41 43 45 47 49 51 54 56 58 60 59 57 60 62 65 66 68 69 70 71 72 74 75 77 78 79 80 80 81 81 80 80 79 78 77 76
35 36 37 38 40 41 43 46 48 50 52 54 56 58 60 63 66 68 67 66 67 69 71 73 75 76 77 78 78 79 81 82 83 84 85 85 85 85 84 84 83 82 81
38 39 40 42 44 46 48 50 52 54 57 59 61 63 65 67 69 73 75 75 75 74 76 77 79 80 82 83 84 85 85 86 87 88 89 89 90 89 89 88 87 86 85
41 42 44 46 48 50 53 55 57 59 61 63 65 68 70 72 74 77 79 80 81 80 81 81 83 85 86 88 89 90 90 90 90 90 90 91 92 92 92 92 91 90 88
44 46 48 50 52 54 56 58 60 62 65 67 69 71 73 75 78 80 83 85 87 86 85 85 86 88 90 91 92 93 93 92 90 89 89 89 90 91 92 92 92 92 91
47 49 51 53 55 57 60 62 64 66 68 70 73 75 77 79 81 84 86 88 91 92 90 88 89 90 92 92 91 90 90 88 86 84 83 82 83 84 85 87 89 89 90
50 52 54 56 58 61 63 65 67 70 72 74 76 78 80 83 85 87 89 91 93 96 96 91 90 89 88 86 82 80 78 78 77 75 74 74 74 75 76 78 79 82 83
52 55 57 59 62 64 66 68 71 73 75 77 79 82 84 86 88 89 91 92 92 92 93 88 84 81 78 75 72 69 68 67 67 67 66 67 67 68 68 69 70 73 75
55 57 60 62 64 67 69 72 74 76 78 81 83 85 87 89 90 90 90 89 88 85 84 81 74 69 66 64 62 61 59 58 58 58 58 58 59 60 61 61 62 63 66
58 60 62 65 67 70 72 75 77 79 82 84 86 87 89 90 89 88 86 84 80 77 74 71 64 60 58 56 55 54 53 52 52 52 52 52 53 54 54 55 55 57 58
60 62 65 68 71 73 75 78 80 82 84 86 87 88 88 88 86 83 79 75 71 68 65 62 58 54 52 51 51 50 49 49 49 50 49 49 49 49 49 49 50 51 52
63 65 68 71 74 76 78 81 83 84 85 86 87 86 85 82 79 76 71 67 63 60 58 56 53 51 48 47 47 48 47 46 45 46 46 46 46 45 45 46 46 46 47
66 69 72 74 76 78 81 83 85 86 87 87 85 83 80 76 71 67 63 60 57 55 53 52 50 48 46 45 45 45 44 43 42 41 43 42 42 42 42 42 42 42 43
69 72 74 76 78 80 82 84 85 86 86 84 82 78 74 68 64 60 56 53 51 50 50 49 47 45 44 43 43 43 42 41 40 39 40 38 38 38 38 38 38 39 39
72 75 77 78 80 82 83 84 85 85 83 80 77 72 66 60 56 53 50 48 47 46 45 45 44 43 42 42 42 42 41 40 38 38 39 37 36 36 36 35 36 36 36
75 77 79 80 82 82 83 84 83 82 79 74 69 63 59 54 51 49 47 45 43 42 42 42 41 41 40 40 41 41 41 40 38 36 36 36 35 35 34 33 34 34 34
77 79 80 82 83 83 82 82 81 79 74 68 61 55 52 49 47 45 45 43 41 40 40 39 38 38 38 38 39 39 39 39 37 34 33 34 33 34 32 32 32 32 32

GEFSMA_500_meanwind_084.txt.gz
Wind_Speed
27 27 28 29 30 31 32 32 33 34 34 34 35 36 37 38 38 39 40 41 42 43 45 46 47 47 48 49 49 50 50 50 51 51 51 51 51 51 51 50 50 50 49
29 29 30 31 31 32 32 33 34 34 35 35 36 36 37 38 39 40 41 42 43 44 45 46 47 48 49 50 51 51 52 53 53 53 54 54 54 54 54 53 53 53 53
30 31 32 33 33 33 34 34 35 35 36 36 36 37 37 38 39 40 41 42 43 44 45 46 47 48 49 50 50 51 52 53 53 54 54 55 55 55 55 55 55 55 55
32 32 33 34 34 35 35 36 36 37 37 37 38 38 38 38 39 40 41 42 43 44 45 46 47 48 49 50 50 51 52 52 53 53 54 55 55 56 56 57 57 57 57
33 33 34 35 35 36 36 36 36 36 36 37 36 37 37 38 39 40 41 41 42 43 44 46 47 48 49 50 51 52 53 54 55 55 56 57 57 57 58 58 58 59 59
33 34 35 36 36 36 36 36 36 36 36 36 36 36 37 37 39 39 40 41 42 43 44 46 48 49 50 52 53 54 55 56 57 58 58 59 59 60 60 61 61 61 62
34 34 35 36 36 36 36 36 35 36 36 37 37 36 36 37 39 39 41 43 44 46 47 49 50 52 53 55 56 57 59 60 61 62 63 63 64 64 64 65 65 65 66
35 35 36 36 36 36 36 36 37 37 39 40 40 39 39 40 42 43 45 47 49 50 52 54 55 56 58 59 61 62 64 65 66 67 68 68 69 69 69 69 69 69 70
36 36 36 37 37 37 38 39 40 40 41 43 44 45 45 45 45 46 48 50 53 55 57 59 60 62 63 64 65 67 68 69 70 72 73 73 74 74 74 74 74 74 74
38 38 38 38 39 40 41 42 43 44 44 46 48 50 52 53 53 52 51 53 55 57 59 62 64 66 67 69 70 71 72 73 74 75 76 77 78 78 79 79 79 79 79
39 40 41 41 41 42 43 44 46 47 48 49 51 53 55 57 59 61 60 58 59 61 63 65 67 69 71 73 74 75 76 77 78 79 79 80 81 82 82 83 83 83 83
41 41 42 43 44 44 46 47 48 50 51 53 55 56 58 60 62 65 66 66 65 65 66 67 69 71 73 75 77 79 80 81 82 83 83 84 84 85 86 86 87 87 87
42 43 44 45 46 47 48 49 51 52 54 56 57 59 61 63 65 67 69 70 71 70 70 70 72 74 76 78 80 82 84 85 86 87 87 88 88 88 89 89 89 89 89
44 45 46 47 48 49 50 52 53 55 57 58 60 62 63 65 67 69 72 74 75 74 74 74 76 78 80 82 84 86 87 88 89 90 90 90 90 90 90 90 90 90 90
46 47 47 48 50 51 53 54 55 57 59 61 62 64 65 67 69 72 74 77 79 79 77 77 80 82 85 87 88 89 90 90 90 90 90 89 89 88 88 87 87 87 87
48 49 50 51 52 53 54 56 58 60 61 62 64 65 67 69 72 73 76 78 80 83 83 81 84 86 89 90 90 90 89 88 86 85 84 83 81 80 79 78 77 77 77
50 51 52 53 54 55 57 58 60 61 62 64 66 68 70 72 73 75 78 80 82 85 87 85 86 88 89 89 88 87 84 82 79 76 74 72 69 67 66 65 65 64 65
52 53 54 55 56 58 59 60 61 63 64 66 68 70 72 74 75 78 80 82 84 86 89 88 86 86 85 84 82 80 76 73 69 66 63 60 58 56 55 55 54 55 55
54 55 56 57 58 59 60 62 63 65 66 69 71 72 74 76 78 80 82 84 85 87 88 88 85 82 79 76 73 70 67 64 60 57 54 52 51 50 50 50 50 50 50
56 57 58 59 59 61 62 64 66 67 69 71 73 74 76 79 80 82 83 85 86 86 85 83 80 75 70 67 64 61 58 56 53 51 49 48 48 47 46 46 46 46 47
58 59 59 60 61 63 65 67 68 70 72 73 75 77 79 80 82 84 85 85 84 83 80 77 72 66 61 58 56 54 51 49 47 46 46 45 45 44 43 43 43 43 43
58 59 60 62 63 65 68 70 72 73 74 76 78 79 81 82 83 84 84 83 81 78 74 69 64 59 55 52 50 48 46 44 42 42 42 41 41 41 41 41 41 40 40
59 60 62 64 66 68 71 73 74 75 77 78 80 82 83 83 83 82 81 79 75 71 67 62 57 53 50 47 45 43 42 41 39 38 38 37 38 39 40 40 40 39 38
61 62 64 66 69 71 74 75 76 78 79 81 82 83 83 82 82 80 77 73 68 63 59 56 52 48 46 43 42 41 39 38 35 35 35 34 35 36 38 39 39 38 37
62 64 67 69 71 73 76 78 80 81 82 82 83 83 82 81 78 76 72 66 60 55 52 49 47 44 42 41 40 38 37 35 33 32 33 34 33 34 35 36 37 36 35
65 67 69 72 75 77 79 81 83 84 84 83 82 80 79 77 73 68 63 58 52 48 45 43 41 40 39 38 37 36 35 34 33 31 31 32 32 32 31 33 34 33 33

GEFSMA_500_meanwind_090.txt.gz
Wind_Speed
26 27 28 29 30 31 32 33 33 34 34 35 36 36 37 38 38 39 39 40 40 40 41 42 42 43 44 44 45 46 46 47 48 48 49 49 50 50 50 50 50 50 49
28 29 30 31 32 33 33 34 34 35 36 36 37 37 38 39 40 40 41 41 41 42 42 42 43 43 44 44 45 46 46 47 48 48 49 50 50 51 51 51 51 51 51
30 31 32 33 34 34 35 35 36 36 37 38 38 39 39 40 41 41 41 42 42 43 43 43 43 44 44 45 45 46 47 47 48 48 49 49 50 50 51 51 52 52 52
31 32 33 34 34 35 36 36 37 37 38 38 39 40 40 40 41 41 41 42 42 43 43 43 44 44 44 45 45 46 47 47 47 48 48 49 50 50 51 51 52 53 53
33 33 34 35 35 36 36 37 37 38 39 39 39 40 40 41 41 41 41 41 42 42 43 43 44 44 45 45 46 47 47 48 49 49 50 50 51 52 52 53 53 54 54
34 35 35 36 37 37 37 38 39 39 39 39 39 40 40 40 40 41 42 42 43 44 44 45 46 46 47 48 49 49 50 51 52 53 53 54 54 54 55 55 56 56 57
35 36 37 38 38 39 39 39 40 41 41 40 39 40 40 41 42 43 44 45 46 47 47 48 49 50 51 52 53 54 55 55 56 57 57 58 58 59 59 60 60 60 61
37 38 39 39 40 41 41 41 42 42 43 43 42 41 41 42 44 45 46 47 48 50 51 52 53 54 55 56 57 58 59 60 60 61 62 62 63 63 64 64 64 65 65
40 40 41 41 42 43 43 43 43 44 44 45 45 45 45 44 45 45 47 49 50 52 53 55 56 58 59 60 61 62 63 64 65 65 66 67 67 68 68 68 69 69 69
41 42 43 43 44 45 45 45 45 46 46 47 48 49 50 50 50 48 47 50 52 53 55 57 58 60 62 63 65 65 66 67 68 69 69 70 70 71 72 72 72 73 73
43 44 45 45 46 47 47 47 47 48 48 49 50 51 52 53 54 55 53 52 53 55 57 58 60 61 63 64 66 67 68 69 69 70 71 72 73 73 74 75 75 76 76
45 46 47 47 48 48 48 49 49 49 50 51 52 53 54 55 57 59 59 58 57 57 57 58 60 62 63 65 66 68 69 70 71 72 73 74 74 75 76 77 78 78 79
47 48 49 49 50 50 50 50 51 51 52 53 54 55 56 58 59 61 62 62 62 60 60 60 61 63 64 66 67 68 69 71 72 73 74 76 77 78 78 79 80 81 82
49 49 50 51 51 51 51 52 52 53 54 55 56 57 58 60 61 62 63 64 64 63 63 63 64 65 66 68 69 70 71 73 74 75 77 78 79 80 81 82 83 83 84
50 51 52 52 52 52 53 53 54 55 55 56 57 58 59 60 61 63 64 66 67 67 66 66 68 69 70 71 72 73 74 76 77 78 79 80 81 82 83 84 84 85 84
51 52 53 53 53 53 54 54 55 56 56 57 58 59 60 61 63 64 66 67 69 70 70 70 71 73 74 75 76 77 78 79 80 81 82 82 83 83 83 83 83 82 81
52 52 53 53 54 55 55 56 56 57 58 58 59 60 61 63 64 66 67 69 70 72 72 71 73 75 77 79 81 82 83 84 84 83 83 82 81 80 79 77 76 74 73
52 52 53 54 54 55 56 56 57 58 58 59 61 62 63 65 66 67 69 70 72 74 76 76 76 78 80 82 83 84 85 85 84 83 81 79 77 74 71 68 66 65 64
52 53 54 54 55 56 57 57 58 59 60 61 62 63 65 67 68 70 71 73 75 78 80 81 81 82 83 83 84 84 84 83 81 79 76 73 69 66 63 60 58 57 56
53 54 55 55 56 57 58 58 59 60 61 62 64 66 68 70 72 73 75 77 80 82 83 84 84 83 83 82 82 81 79 77 74 72 68 64 61 58 55 53 51 50 48
54 54 55 56 57 58 59 60 60 61 63 65 67 69 71 73 75 78 80 82 84 85 86 86 85 83 80 79 77 76 73 69 65 62 58 55 52 50 48 46 45 44 43
54 55 56 56 57 58 60 61 63 65 67 69 71 73 75 77 80 82 84 85 87 87 86 85 83 80 76 74 71 68 64 59 54 51 49 46 45 43 42 42 40 39 38
54 55 56 57 58 61 63 65 67 69 70 73 75 77 79 81 83 84 85 85 85 84 83 82 79 74 70 66 63 58 54 50 45 42 41 38 38 38 38 38 37 35 34
55 56 57 59 61 64 66 68 70 72 74 76 78 81 82 82 83 85 84 83 81 79 77 75 71 66 61 57 54 50 46 42 38 36 36 33 33 33 34 34 34 33 32
56 57 59 62 64 67 70 72 75 77 78 79 81 82 82 83 83 83 82 80 76 72 69 65 61 57 53 49 46 43 39 37 33 32 32 30 29 30 30 31 32 32 30
58 60 62 65 68 71 74 76 79 81 81 81 81 81 82 82 81 80 78 74 70 65 60 54 50 47 44 41 39 38 36 34 31 29 29 29 28 28 27 28 30 31 29

GEFSMA_500_meanwind_096.txt.gz
Wind_Speed
27 27 27 27 27 28 28 29 30 30 31 31 32 33 34 34 35 35 35 35 36 37 38 39 40 41 41 42 43 43 44 44 45 46 46 47 47 48 48 48 49 49 49
28 28 28 29 29 29 30 31 31 32 32 33 34 34 35 36 36 37 37 37 38 38 39 39 40 41 42 42 43 44 45 45 46 46 47 47 48 48 49 49 49 50 50
29 29 30 30 31 31 32 32 33 33 34 34 35 36 36 37 38 38 38 39 39 40 40 40 41 41 42 43 43 44 45 45 46 46 47 47 48 48 49 49 50 50 51
30 31 31 32 32 33 33 34 35 35 36 36 37 38 38 38 39 39 40 40 41 41 41 42 42 42 43 43 44 44 45 46 46 46 47 47 48 48 49 49 50 50 50
32 33 33 33 34 34 35 36 37 37 38 38 39 39 40 40 40 41 41 42 42 42 43 43 44 44 44 45 46 46 47 48 48 49 49 50 50 50 51 51 51 51 52
33 34 34 34 35 36 37 37 38 39 39 39 40 40 41 42 42 43 43 44 44 45 45 45 46 47 47 48 49 49 50 51 51 52 53 53 53 54 54 54 54 54 55
34 35 35 36 36 37 38 39 40 40 40 41 41 41 42 43 43 44 45 46 46 47 47 48 49 49 50 51 51 52 53 54 54 55 56 56 57 57 57 57 58 58 58
35 35 36 37 38 39 40 41 41 41 42 42 42 43 43 44 45 46 47 47 48 49 50 51 52 52 53 53 54 55 56 56 57 58 59 59 60 60 60 60 61 61 61
36 37 37 38 40 41 42 42 43 43 43 44 45 45 45 44 45 46 47 49 50 51 52 53 54 55 56 57 57 58 59 60 60 60 61 61 62 62 63 63 63 64 64
37 38 39 40 41 42 43 44 44 45 45 46 47 47 47 47 46 45 46 48 50 51 53 54 55 57 58 59 60 61 61 62 62 63 64 64 65 66 66 66 67 67 67
38 39 40 41 42 43 44 46 46 47 47 47 48 48 48 48 49 49 47 48 49 51 52 54 56 57 59 60 61 62 62 63 64 65 66 66 67 67 67 68 68 69 69
39 40 41 42 43 45 46 47 47 48 48 48 49 49 49 50 50 51 50 50 50 51 52 53 55 57 58 59 60 62 63 64 65 66 67 67 67 68 68 69 69 70 70
40 41 42 44 45 46 47 48 48 49 49 49 50 50 51 51 52 52 52 52 52 52 53 54 55 57 58 60 62 63 64 65 66 67 68 69 69 70 70 71 71 72 72
42 43 44 45 47 47 48 49 49 49 49 50 50 51 51 52 53 53 54 55 54 54 55 56 58 59 61 62 64 65 66 67 68 69 70 70 71 72 73 74 74 74 75
43 44 46 47 48 48 49 49 49 50 50 51 51 52 53 53 54 55 56 57 58 58 58 59 62 63 64 65 67 68 69 70 71 72 73 74 75 76 76 77 77 78 78
45 46 47 48 49 49 49 49 50 50 51 51 52 53 53 54 55 56 58 60 61 63 63 64 66 68 70 71 72 73 75 75 76 77 78 79 80 80 80 81 81 81 81
46 47 47 48 49 49 49 50 50 51 52 52 53 54 55 56 57 59 61 63 65 67 68 68 71 73 75 77 78 79 81 82 82 82 83 83 83 83 83 83 83 82 82
46 47 47 48 49 49 50 50 51 52 53 53 55 55 56 58 60 62 65 67 69 71 73 74 74 77 79 81 82 83 84 85 85 85 85 84 84 83 82 82 81 80 78
46 47 48 49 49 50 51 52 52 53 54 55 56 58 59 62 64 66 69 71 73 75 77 78 78 79 81 82 83 83 84 84 83 83 82 82 81 80 78 76 74 72 71
47 48 48 49 50 51 51 52 53 54 55 57 59 61 63 66 68 71 73 75 77 78 80 81 81 81 81 82 82 82 81 79 78 77 76 75 74 72 69 67 65 63 62
47 48 49 50 50 51 52 53 54 56 58 59 62 64 67 69 72 74 76 78 79 80 81 83 83 82 80 79 78 77 75 72 70 69 67 65 63 61 58 56 55 54 53
48 49 49 50 51 52 54 55 57 58 60 63 65 68 70 73 75 77 78 79 81 82 83 83 81 79 77 75 73 71 69 66 62 58 57 53 52 50 48 47 46 45 44
48 48 49 50 52 54 55 57 59 61 64 67 69 71 74 75 77 79 79 79 80 81 81 80 77 74 71 68 67 65 62 59 53 49 47 44 43 41 40 39 38 36 35
48 49 50 52 54 55 57 60 62 65 68 70 72 74 76 77 78 79 79 79 78 77 75 73 71 68 66 64 62 59 54 49 44 41 40 37 35 35 34 32 31 30 29
48 50 51 53 55 58 60 63 66 69 70 72 74 76 77 78 79 80 79 78 75 72 69 67 65 63 61 58 55 51 46 42 37 35 34 32 30 29 27 27 27 26 25
49 51 53 55 58 61 64 67 69 72 73 75 76 77 78 78 78 78 77 74 70 67 65 62 61 58 54 51 47 43 40 37 34 31 30 28 26 25 23 24 24 24 23

GEFSMA_500_meanwind_102.txt.gz
Wind_Speed
29 29 29 30 30 31 31 32 32 33 33 34 34 34 34 34 35 36 36 36 37 38 38 38 39 39 40 40 41 41 41 42 42 43 43 44 45 45 46 47 47 47 48
31 31 31 31 32 32 33 33 34 34 35 35 35 35 36 37 37 37 37 37 38 38 38 39 39 40 40 41 42 42 43 43 43 44 44 44 45 45 46 47 47 48 48
32 32 32 33 33 34 34 35 35 36 36 36 37 37 38 38 38 39 39 39 38 39 39 40 40 41 42 42 42 43 43 44 44 45 45 46 46 46 47 48 48 48 49
33 33 34 34 35 35 36 36 36 37 37 38 38 39 39 40 40 40 40 40 39 39 40 41 41 42 42 43 43 44 44 44 45 45 46 46 47 48 48 49 49 49 50
34 34 35 36 36 36 37 37 37 38 39 39 39 40 40 41 41 41 41 41 41 41 41 42 42 43 43 44 44 45 45 46 46 47 47 48 49 49 50 51 51 52 52
35 35 36 36 37 37 38 38 39 39 40 40 40 41 42 42 43 43 43 43 43 43 43 43 43 44 44 45 46 46 47 48 48 49 49 50 50 51 52 53 53 54 54
36 36 36 37 37 38 39 39 40 40 41 41 41 42 43 43 44 44 44 44 44 44 44 45 45 45 46 46 47 48 49 49 50 50 51 51 52 53 54 54 55 55 56
36 36 37 37 38 39 40 40 41 41 42 42 43 43 43 43 44 44 45 45 45 45 46 46 46 47 47 47 47 48 49 50 50 51 52 52 53 54 55 56 56 57 57
36 37 37 38 39 40 40 41 41 42 43 44 45 45 44 44 44 44 45 45 45 46 46 47 47 47 47 48 48 49 50 50 51 52 53 53 54 55 56 57 57 58 58
37 37 38 39 40 40 41 41 43 43 44 45 46 46 46 46 45 44 44 45 45 45 46 47 48 48 49 50 50 51 51 52 53 53 54 55 56 57 58 58 59 59 60
37 38 39 39 40 40 41 42 43 44 45 46 47 47 47 47 47 46 44 44 45 46 46 47 48 49 50 50 51 52 53 54 55 56 57 58 59 59 60 61 61 62 62
37 39 39 39 40 41 42 43 45 46 47 48 48 48 48 47 47 47 46 45 45 45 47 47 48 49 50 51 52 54 55 57 58 59 61 61 62 63 63 64 65 65 66
38 39 39 40 41 42 44 45 46 47 48 48 48 48 48 48 48 48 47 47 46 46 46 47 48 50 51 53 55 57 58 60 62 63 64 66 67 68 68 69 70 70 70
38 39 40 41 42 43 44 46 47 48 48 48 48 48 48 48 48 49 49 49 48 47 47 49 51 53 55 57 59 61 62 64 66 67 68 70 71 72 73 74 75 76 76
38 40 41 42 43 44 45 47 48 48 48 48 48 48 49 49 49 50 50 50 50 50 50 52 55 57 59 61 63 65 67 69 71 72 74 75 76 77 78 79 80 81 81
39 40 41 43 44 45 47 48 48 48 49 49 49 49 49 50 50 50 51 52 54 55 55 56 59 62 64 66 69 71 72 74 76 77 78 80 80 81 81 82 82 82 83
40 40 42 44 45 46 47 48 48 49 49 49 49 50 50 51 51 52 54 55 57 59 60 61 64 67 69 71 73 75 76 77 78 79 80 80 80 80 80 80 80 81 81
40 41 43 45 46 47 48 48 49 49 49 50 50 51 51 52 53 55 57 59 61 63 65 66 68 71 73 74 76 77 78 79 79 78 77 76 75 75 75 75 74 74 74
41 43 45 46 47 48 48 49 49 49 50 51 51 52 53 55 56 58 60 63 65 67 70 72 72 73 74 76 77 77 77 76 74 73 72 71 70 69 68 67 67 67 67
42 44 45 47 47 48 48 49 50 51 51 52 53 54 56 58 59 62 64 66 69 70 73 74 75 74 75 76 77 76 73 70 68 68 67 65 64 63 63 62 62 61 60
43 44 46 46 47 48 49 50 51 52 52 54 55 57 59 61 63 65 68 69 71 73 75 76 76 75 75 75 74 71 68 66 64 64 62 60 59 58 58 56 54 52 50
44 45 45 46 47 49 50 51 52 53 55 56 58 60 62 64 66 68 69 71 74 76 77 77 76 75 74 71 69 67 66 64 61 59 58 55 55 52 50 48 45 42 40
43 44 45 47 48 50 52 53 54 56 57 59 61 63 65 67 68 70 71 73 75 77 77 77 76 73 70 67 67 65 63 60 57 54 53 50 47 45 42 39 37 35 34
43 45 46 48 49 51 53 54 56 58 60 62 64 66 67 69 70 72 73 74 75 75 75 75 73 69 67 65 64 62 59 56 52 50 48 43 40 37 34 33 32 30 28
44 46 48 49 51 53 55 57 59 61 63 65 67 68 69 71 72 74 75 75 74 73 73 71 69 66 64 62 60 58 54 51 46 42 40 38 34 31 30 29 28 25 23
45 47 49 51 52 55 57 59 62 64 66 67 68 69 71 73 73 74 75 75 74 72 70 67 64 62 59 56 54 51 48 44 40 36 34 33 31 29 26 25 24 22 21

GEFSMA_500_meanwind_108.txt.gz
Wind_Speed
29 30 30 31 31 32 32 32 33 33 34 34 35 35 35 35 36 36 37 38 38 39 39 39 40 40 41 41 42 42 42 43 43 43 43 44 44 45 45 46 46 46 46
31 31 32 32 32 33 34 34 34 34 35 36 36 36 36 37 37 37 38 39 39 40 40 41 41 42 42 43 43 43 43 44 44 44 45 45 45 46 46 47 47 48 48
32 33 33 33 34 35 35 35 35 36 36 37 37 37 37 38 39 39 39 39 40 41 41 42 43 43 43 44 44 44 44 45 45 45 45 46 46 46 47 47 47 48 48
34 34 34 35 36 36 36 36 36 36 37 37 38 38 38 39 40 40 40 41 41 42 42 43 43 44 44 44 45 45 45 45 45 46 46 46 47 47 47 48 48 48 49
35 35 36 36 37 37 37 37 37 37 38 38 38 39 39 40 41 41 41 41 42 43 43 43 44 44 44 44 45 45 45 45 46 46 47 47 48 48 49 49 49 50 50
36 36 37 37 37 38 38 38 38 38 39 39 39 39 40 41 41 41 42 42 42 43 43 43 44 44 44 44 44 45 45 46 46 46 47 47 48 48 49 50 50 51 51
37 38 38 38 38 38 38 39 39 39 39 39 39 40 40 41 42 42 43 43 43 43 44 44 44 44 44 44 45 45 45 45 46 46 46 46 47 48 49 49 50 51 52
38 38 38 38 38 39 39 39 39 39 39 39 40 40 40 41 42 42 43 44 44 45 45 45 45 44 44 45 45 45 45 45 46 46 46 47 47 48 49 50 51 52 53
38 38 38 38 39 39 39 39 39 39 40 40 40 40 41 41 41 42 43 44 45 45 45 45 45 45 45 45 45 45 45 45 45 46 47 47 48 49 50 51 52 53 54
38 38 38 38 38 39 39 40 40 40 40 40 40 41 42 42 43 43 43 44 44 44 45 45 45 45 45 45 45 45 45 46 47 48 49 50 51 52 52 53 54 55 56
38 38 38 38 38 39 39 39 40 40 40 41 41 42 43 44 44 44 44 44 44 45 45 45 45 45 45 45 45 46 47 48 50 51 52 53 54 55 57 58 59 60 61
38 38 38 38 38 38 39 39 40 41 41 42 43 43 44 45 45 45 45 44 44 44 45 46 46 46 46 47 48 49 50 52 53 54 56 57 58 60 62 63 65 66 67
37 37 37 37 38 38 39 40 41 41 42 43 44 45 45 46 46 46 46 45 44 44 45 46 46 47 48 49 51 52 53 55 57 58 60 62 64 65 67 68 70 71 72
36 37 37 38 38 39 40 40 41 42 43 44 45 46 46 47 47 47 48 48 47 46 46 46 48 49 51 52 54 56 57 59 61 63 65 67 69 71 72 73 74 75 76
36 37 37 38 39 39 40 41 42 43 44 45 46 47 47 48 48 49 49 50 49 48 47 48 50 52 54 56 58 60 62 64 66 68 70 72 73 74 75 76 77 78 79
36 37 37 38 39 40 41 42 43 44 45 46 47 48 48 49 50 50 51 51 52 52 51 52 55 57 59 61 63 65 67 68 70 72 73 73 74 75 76 77 78 78 78
36 37 37 38 39 40 41 42 43 45 45 46 47 48 49 50 51 52 52 53 54 55 56 56 59 61 63 65 67 69 70 72 73 73 73 73 74 75 76 75 75 74 74
36 37 37 38 39 40 42 43 44 45 46 47 48 49 50 51 52 53 54 55 57 59 61 61 62 64 66 68 69 70 72 72 72 72 73 74 74 73 72 71 70 70 69
36 37 37 38 39 41 42 43 45 46 47 48 49 51 52 53 54 55 57 58 60 62 64 65 66 67 69 70 71 72 72 72 72 72 73 72 71 70 69 68 67 65 64
35 36 37 38 40 41 43 44 46 47 48 49 51 52 53 55 56 58 59 61 63 65 66 68 69 69 70 71 72 72 71 71 71 72 72 70 69 67 65 64 63 61 60
35 36 38 39 40 42 44 45 46 48 49 50 52 53 55 57 58 60 63 64 66 67 68 70 70 70 70 72 72 72 71 70 70 70 69 67 65 63 61 59 58 56 55
36 37 39 40 41 43 45 46 48 49 50 51 53 55 57 59 61 63 65 67 68 70 71 71 71 72 72 72 71 71 70 69 67 66 64 61 59 57 56 54 52 50 48
37 38 39 40 42 44 45 47 48 49 51 53 54 56 59 61 63 65 67 68 69 71 71 72 72 72 72 71 71 69 68 66 64 61 58 54 53 51 49 47 45 43 40
37 39 40 41 42 44 46 47 49 51 52 54 56 58 60 63 65 67 68 69 70 70 71 72 72 72 71 71 69 66 64 61 58 55 53 50 47 44 42 41 39 37 35
38 39 40 42 43 45 47 49 50 52 53 55 57 60 62 64 67 69 70 70 69 69 71 71 71 70 69 67 65 62 59 56 52 49 47 44 41 38 36 36 35 32 30
38 39 40 42 44 46 48 50 51 52 54 57 59 62 64 66 68 69 70 70 70 70 69 69 67 66 65 63 61 59 55 50 46 42 40 39 36 34 31 31 30 28 26

GEFSMA_500_meanwind_114.txt.gz
Wind_Speed
26 27 28 29 30 31 32 33 34 35 35 36 36 36 37 38 38 38 39 39 40 40 40 41 41 41 42 42 43 43 43 43 44 44 44 44 44 44 44 44 44 44 44
28 29 30 31 32 33 34 35 35 36 37 37 37 37 38 38 39 39 40 40 40 40 41 41 42 42 42 43 43 43 43 44 44 44 44 44 44 45 45 45 45 44 45
30 31 32 33 34 34 35 36 36 37 38 38 38 39 39 39 39 40 40 40 41 41 42 42 42 42 42 43 43 43 43 43 44 44 44 44 44 44 44 44 45 45 45
32 33 34 34 35 36 36 37 37 38 39 39 39 40 40 40 40 40 41 41 42 42 42 42 42 42 43 43 43 43 43 43 43 43 43 43 44 44 44 44 44 44 45
34 35 35 36 36 37 37 38 38 39 39 40 40 40 40 40 41 41 41 41 42 42 41 42 42 42 43 42 42 42 42 43 43 43 43 43 43 44 44 44 44 44 45
35 35 36 37 37 38 38 38 39 40 40 40 40 40 40 41 41 41 42 42 42 42 42 43 43 42 42 42 42 42 42 42 42 42 42 43 43 43 43 44 44 44 45
36 37 37 37 38 38 39 39 39 40 40 40 40 40 41 41 41 41 42 42 43 43 43 43 43 43 43 43 43 43 43 43 43 43 42 42 42 43 43 43 44 44 45
37 37 38 38 38 38 39 39 40 40 40 40 40 40 40 40 41 42 42 43 43 43 44 43 44 44 44 44 44 44 44 43 43 42 42 42 43 43 43 44 44 45 46
37 38 38 39 39 39 39 39 39 39 40 40 41 41 41 41 41 41 42 43 44 44 45 45 45 44 44 44 44 44 44 43 43 44 44 44 44 44 45 46 46 47 48
38 38 39 39 38 38 39 39 39 39 40 40 41 41 42 42 42 42 43 44 44 45 45 45 45 45 45 45 45 45 45 45 45 45 46 46 46 47 48 49 50 51 52
38 38 38 38 38 38 38 39 39 39 40 40 41 42 42 43 43 43 43 44 44 45 46 45 45 46 46 46 46 46 47 47 47 48 48 49 50 51 52 53 54 55 56
37 37 37 38 38 38 38 39 39 39 40 41 42 43 43 43 44 44 44 45 45 45 46 47 47 48 48 48 49 49 49 49 50 51 52 53 54 55 56 57 58 60 61
37 37 37 37 37 38 38 38 39 39 40 41 42 43 43 44 45 45 46 46 46 46 47 49 50 50 50 50 51 51 52 53 54 55 56 57 58 60 61 62 63 64 65
36 37 37 37 37 38 38 38 39 39 41 42 42 43 44 45 46 47 47 48 48 48 49 50 51 52 52 53 54 55 56 58 58 59 61 62 63 65 66 67 68 68 68
36 37 36 37 37 37 37 38 39 40 41 42 43 44 45 46 47 48 49 50 51 51 50 51 52 54 55 56 57 59 60 61 62 63 65 66 67 68 69 70 70 70 69
36 36 36 36 37 37 38 38 39 40 41 42 44 45 46 47 48 49 51 52 53 54 53 53 55 57 58 59 61 63 64 65 66 67 68 69 70 70 71 71 70 70 70
35 35 35 36 36 37 37 38 39 40 42 43 44 45 47 48 49 51 52 54 55 56 56 55 57 59 61 62 64 66 68 68 69 70 70 71 71 71 71 71 71 71 71
35 35 35 35 36 36 37 38 39 41 42 44 45 46 48 49 50 52 53 55 56 57 58 58 59 62 64 66 68 69 69 70 71 71 71 71 70 70 71 71 71 70 70
33 34 34 35 36 37 38 39 40 42 43 44 46 47 49 50 52 53 54 56 57 59 61 61 63 65 67 69 70 70 71 71 72 71 70 70 70 70 70 69 69 68 67
33 33 34 35 36 37 38 40 41 43 44 45 47 49 50 52 53 54 56 57 59 61 63 64 66 68 69 70 71 71 71 71 70 69 69 70 69 69 67 66 64 63 61
33 34 35 36 37 38 39 40 42 43 45 46 48 49 51 52 54 55 57 59 61 63 65 67 68 70 70 71 71 71 70 69 68 69 68 67 67 65 63 61 59 56 54
33 34 35 36 37 38 40 41 43 44 45 47 48 50 51 53 55 57 59 61 63 65 67 69 70 71 70 71 71 71 70 68 67 66 65 63 63 61 58 55 52 50 47
34 35 36 37 38 39 40 42 43 44 46 47 49 50 52 55 56 58 60 62 64 67 69 71 71 71 71 71 71 70 69 68 66 64 62 59 57 54 50 48 45 43 42
34 34 36 37 38 39 41 42 43 45 47 48 49 51 54 56 57 59 61 64 66 68 70 70 70 71 71 71 70 69 67 64 62 60 59 54 50 46 44 42 41 39 37
34 35 36 37 38 40 41 43 44 46 47 49 51 53 55 57 59 61 63 65 66 67 68 69 70 71 70 69 69 66 63 61 58 55 53 49 44 41 39 38 37 35 32
34 35 36 37 39 40 41 43 45 46 48 50 52 54 56 59 61 63 65 66 67 67 68 69 69 69 67 65 63 61 59 57 54 50 47 43 39 37 34 33 32 31 29

GEFSMA_500_meanwind_120.txt.gz
Wind_Speed
23 24 25 26 27 28 29 30 31 32 33 34 34 34 35 36 36 37 37 37 38 38 38 38 39 39 39 39 39 39 39 39 39 39 39 39 39 39 40 40 40 41 41
25 26 27 28 29 30 31 32 33 34 34 35 35 35 36 36 37 37 37 38 38 38 38 38 39 39 39 39 39 39 39 39 39 39 39 39 39 39 40 40 40 41 41
26 27 28 29 30 32 33 33 34 35 35 35 35 36 37 37 37 37 38 38 37 37 38 38 39 39 39 39 39 38 38 39 39 39 39 39 39 39 39 40 40 41 41
28 29 30 31 32 33 34 34 35 35 35 36 36 36 37 37 37 37 37 37 37 38 38 38 38 38 38 38 38 38 38 39 39 39 39 39 40 40 40 40 40 40 41
30 31 32 33 34 34 35 35 35 36 36 36 37 37 37 37 37 37 37 38 38 38 38 38 38 38 38 38 38 39 39 39 39 39 40 40 40 40 40 40 40 40 41
31 32 33 34 35 35 35 35 36 36 36 37 37 37 37 37 37 37 38 38 38 38 38 39 38 38 39 39 40 40 40 40 40 40 40 40 40 40 40 40 41 41 41
33 34 34 35 35 35 36 36 36 36 37 37 37 37 37 37 37 37 38 38 38 39 39 39 39 39 40 41 41 42 41 41 40 41 41 40 40 41 41 41 42 42 42
34 34 35 35 35 36 36 36 36 36 36 36 37 37 37 37 37 37 38 39 39 39 40 40 40 41 41 42 42 42 42 42 42 42 41 42 42 43 43 43 43 44 44
35 35 35 35 35 36 36 36 36 36 36 36 36 37 37 37 38 38 38 39 40 40 41 41 41 42 43 43 43 43 43 43 43 43 43 44 44 44 44 45 45 46 47
35 35 35 35 35 36 36 36 36 36 36 36 36 37 37 38 38 38 39 40 41 41 42 42 43 44 44 44 45 45 45 45 45 45 46 46 46 47 47 48 49 50 51
35 36 36 35 36 36 36 36 36 36 36 36 36 37 37 38 39 40 40 41 42 43 43 44 45 46 46 47 47 47 47 47 47 48 49 50 50 51 52 53 54 55 56
36 36 36 35 36 36 36 36 35 35 36 36 36 37 38 39 40 41 41 42 43 44 45 46 47 48 48 49 49 49 50 51 51 52 53 54 54 56 57 58 59 61 62
36 36 36 35 35 35 35 35 35 35 36 36 37 38 39 40 40 41 43 43 44 45 46 48 49 50 50 50 51 51 52 53 54 55 57 58 59 60 62 63 65 66 67
36 36 35 35 35 35 35 35 35 35 36 36 37 38 39 41 41 43 44 45 46 47 48 49 50 50 51 52 53 54 55 57 58 59 60 62 63 64 66 67 69 69 68
35 35 35 35 35 34 34 35 35 35 36 37 38 39 40 41 43 45 46 47 48 49 49 49 51 52 53 55 56 58 59 60 61 63 64 66 67 68 69 70 70 70 69
35 35 34 34 34 34 34 34 35 35 36 37 38 39 41 43 44 46 47 48 49 50 50 51 53 54 56 57 59 60 62 63 64 65 67 68 69 69 69 69 69 69 68
34 34 33 33 33 34 34 34 35 36 37 38 39 40 42 44 45 46 47 48 50 52 53 53 55 56 58 60 61 63 64 65 66 67 68 69 69 69 69 69 69 69 68
33 33 33 33 33 34 34 34 35 36 37 39 40 41 43 44 46 47 47 49 51 53 54 55 57 59 60 62 64 66 66 67 68 69 69 70 70 70 70 69 68 67 66
32 32 33 33 33 34 34 35 36 37 38 39 41 42 44 45 46 47 48 50 52 54 56 58 59 61 63 65 66 67 68 69 69 69 70 70 70 70 68 66 65 64 62
32 32 32 33 33 33 34 35 36 37 38 40 41 42 44 45 46 48 50 52 54 56 58 60 62 64 65 67 67 68 68 69 69 70 70 70 68 67 64 62 60 59 57
31 32 32 32 33 33 34 35 36 37 38 40 41 42 44 45 47 49 51 53 55 58 60 62 64 66 67 67 68 68 68 69 69 69 68 67 64 62 59 57 56 54 52
30 31 31 32 33 33 34 35 36 38 39 40 41 42 44 46 48 50 52 54 57 60 62 64 66 67 67 68 67 67 67 67 66 65 64 61 59 56 54 53 51 49 46
30 30 31 32 32 33 35 36 37 38 39 40 41 43 45 47 49 51 53 56 59 62 64 66 67 67 67 66 66 66 65 65 64 61 59 55 54 52 50 47 45 42 39
30 30 31 32 33 34 35 36 37 38 39 41 42 43 45 48 50 53 55 58 61 63 65 66 67 66 65 65 64 64 63 62 59 57 54 51 49 48 45 42 39 36 33
30 31 32 33 34 34 35 36 37 38 40 41 42 44 47 49 52 54 57 60 62 63 64 65 65 64 63 63 62 62 60 58 55 52 50 48 46 43 41 37 34 31 29
30 31 32 33 34 34 35 36 38 39 40 41 43 45 48 51 53 56 58 61 62 63 64 64 63 62 61 60 60 59 57 54 52 49 46 44 41 38 36 33 30 28 26

GEFSMA_500_meanwind_126.txt.gz
Wind_Speed
19 19 20 21 23 24 25 26 28 29 31 32 33 34 34 35 35 36 36 37 37 38 38 38 38 37 37 37 38 38 38 37 37 37 37 37 37 37 37 37 37 37 37
20 21 22 23 24 25 27 28 29 31 32 33 34 34 35 36 36 36 37 37 38 38 38 37 37 37 38 38 38 38 38 37 37 37 37 37 38 38 38 38 37 37 37
22 23 24 25 26 27 28 29 31 32 33 34 34 35 36 36 36 37 37 37 38 38 38 37 37 38 38 38 38 38 38 38 38 38 38 39 39 39 39 38 38 38 38
24 24 25 26 27 28 30 31 32 33 34 34 35 35 36 37 37 37 37 37 37 38 38 38 38 38 39 39 39 39 39 39 39 39 39 40 40 39 39 39 38 38 39
25 26 26 27 28 29 31 32 33 34 34 35 35 36 37 37 38 38 37 37 38 38 38 38 38 39 39 39 40 40 40 40 40 41 41 40 40 40 39 39 39 40 40
26 27 28 28 29 31 32 32 33 34 35 35 36 36 37 38 38 38 37 38 38 38 39 39 39 39 40 40 41 41 42 42 42 42 42 42 41 41 41 41 41 41 41
27 28 29 30 31 32 32 33 34 34 35 36 36 37 37 38 38 38 38 38 38 39 39 40 40 40 41 42 42 43 43 44 44 44 44 43 43 43 43 44 44 44 44
29 30 30 31 32 32 33 34 34 35 36 36 36 37 37 37 37 38 38 38 39 40 40 41 42 42 43 43 44 45 45 45 46 46 46 46 46 46 46 47 47 47 47
30 30 31 32 32 33 34 34 35 36 36 36 37 37 38 37 37 37 38 39 40 41 42 42 43 44 45 45 46 46 47 47 47 48 48 49 49 49 50 50 50 50 51
31 31 32 32 33 34 34 35 35 36 36 37 37 38 38 38 38 37 38 40 41 42 42 43 44 45 46 46 46 47 48 48 49 49 50 51 52 52 53 53 54 55 55
32 33 33 33 34 34 35 35 35 35 36 37 37 38 38 38 39 39 39 41 42 42 43 44 45 46 46 46 47 48 49 50 51 51 52 54 55 56 56 57 57 58 58
34 34 34 34 34 35 35 35 35 36 36 37 38 38 38 38 39 40 41 42 42 43 44 45 46 46 47 48 49 50 51 52 53 54 55 57 58 58 59 59 60 61 61
34 34 35 35 35 35 35 35 35 36 36 37 37 38 39 39 40 41 42 43 43 44 45 46 47 48 49 50 50 52 53 54 56 57 59 60 60 60 61 62 63 63 63
35 35 35 35 35 35 35 35 35 36 36 37 38 38 39 40 41 42 43 44 44 44 46 47 48 49 50 51 52 53 55 58 59 61 61 62 62 63 65 65 65 65 66
35 35 35 35 35 35 34 35 35 36 36 37 38 39 39 41 42 43 43 44 46 46 47 48 49 51 52 53 55 57 59 61 62 63 64 64 65 66 66 66 66 66 67
34 34 35 35 35 34 34 34 35 36 36 37 38 39 40 41 42 43 44 45 47 48 48 49 51 52 54 56 58 60 62 63 64 65 66 66 66 67 67 67 67 67 67
34 34 35 34 34 33 34 34 35 36 36 37 39 40 41 42 42 43 44 46 47 49 50 51 53 54 56 59 61 63 64 65 66 66 66 67 67 67 67 66 66 65 65
34 34 34 34 33 33 34 34 34 36 37 38 39 40 41 42 42 43 45 47 48 50 51 53 54 57 59 61 63 64 65 66 66 66 66 66 66 65 64 64 63 62 61
34 34 33 32 32 33 33 34 35 36 37 38 39 40 41 42 43 44 46 47 49 51 53 55 56 58 61 62 64 65 66 66 66 66 65 64 63 63 62 61 60 58 57
34 33 32 32 32 33 33 34 35 36 37 38 39 40 41 42 43 45 47 49 51 52 54 56 58 60 62 63 65 66 66 66 65 64 63 62 61 61 59 58 57 55 53
32 32 32 32 32 32 33 34 35 36 37 38 39 41 42 42 44 46 48 50 51 53 55 57 59 61 62 65 66 66 65 63 62 62 61 59 58 57 55 54 53 51 49
31 31 31 31 32 32 33 34 35 36 37 38 39 40 41 43 44 46 48 50 52 54 56 58 60 62 64 65 66 65 64 62 60 59 57 56 55 53 52 51 49 47 44
30 30 31 31 31 31 33 34 35 36 37 38 39 40 41 43 45 47 49 51 52 55 57 59 61 63 65 65 64 63 62 61 59 56 54 52 51 50 49 47 45 43 40
29 29 30 30 31 31 32 33 35 36 37 38 39 40 41 43 45 47 49 50 52 55 57 59 62 64 64 64 63 62 60 58 56 54 52 50 48 47 45 43 42 39 36
29 29 29 30 31 31 32 33 35 36 37 38 39 40 41 43 45 48 49 51 53 56 58 60 62 63 63 62 61 60 58 55 53 51 49 48 46 44 43 41 39 36 33
28 28 29 29 30 31 32 33 34 35 36 37 39 40 42 44 45 48 49 51 54 56 58 60 61 62 62 61 60 58 55 53 51 49 47 46 44 42 40 38 35 33 30